{"data":{"norad_id":66201,"intl_designator":"2025-243AA","name":"STARLINK-35543","alt_names":[],"object_type":"PAYLOAD","status":"ACTIVE","operator":null,"country":"US","launch_date":"2025-10-26","launch_site_code":"AFETR","launch_vehicle":null,"mission":null,"orbit_class":"UNKNOWN","rcs_meters":null,"size_class":null,"mass_kg":null,"dimensions":null,"purposes":["comms"],"wikipedia_slug":null,"has_3d_model":false,"image_url":null,"decayed_at":null,"tle_current":{"epoch":"2026-09-20T21:48:36.183168Z","epoch_age_seconds":65068,"freshness":"FRESH","line1":"1 66201U 25243AA  26263.90875212  .00015201  00000+0  50014-3 0  9995","line2":"2 66201  53.1587  56.9909 0000506  89.7864 270.3196 15.31730512 50569","mean_motion":15.31730512,"eccentricity":5.06e-5,"inclination_deg":53.1587,"raan_deg":56.9909,"arg_perigee_deg":89.7864,"mean_anomaly_deg":270.3196,"bstar":0.00050014,"rev_number":5056,"period_min":94.011315222792,"perigee_km":470.30249347748,"apogee_km":470.99559062494,"semimajor_km":6848.7860420512,"source":"CELESTRAK","updated_at":"2026-09-21T09:00:35.838637Z"}}}